| time (UTC) | temp C | wind direction | speed KPH | gust KPH | rain 1hr cm | rain 24hr cm | rain mn cm | humidity % | barometer mb |
| 20260504021743 | 18 | 290 | 27.4 | 37.0 | 0.00 | 0.00 | 0.00 | 31 | 1002.3 |
| 20260504020745 | 19 | 288 | 33.8 | 37.0 | 0.00 | 0.00 | 0.00 | 31 | 1002.2 |
| 20260504015806 | 20 | 294 | 29.0 | 37.0 | 0.00 | 0.00 | 0.00 | 30 | 1002.2 |
| 20260504014805 | 20 | 294 | 30.6 | 37.0 | 0.00 | 0.00 | 0.00 | 30 | 1002.0 |
| 20260504013753 | 20 | 277 | 32.2 | 40.2 | 0.00 | 0.00 | 0.00 | 30 | 1002.0 |
| 20260504012754 | 21 | 298 | 27.4 | 45.1 | 0.00 | 0.00 | 0.00 | 30 | 1002.1 |
| 20260504011816 | 21 | 292 | 41.8 | 45.1 | 0.00 | 0.00 | 0.00 | 29 | 1002.0 |
| 20260504010755 | 21 | 293 | 33.8 | 51.5 | 0.00 | 0.00 | 0.00 | 29 | 1002.0 |
| 20260504005803 | 22 | 279 | 32.2 | 51.5 | 0.00 | 0.00 | 0.00 | 28 | 1001.9 |
| 20260504004801 | 22 | 271 | 30.6 | 54.7 | 0.00 | 0.00 | 0.00 | 27 | 1002.0 |
| 20260504003802 | 22 | 294 | 46.7 | 53.1 | 0.00 | 0.00 | 0.00 | 27 | 1002.1 |
| 20260504002741 | 22 | 289 | 37.0 | 57.9 | 0.00 | 0.00 | 0.00 | 27 | 1002.0 |
| 20260504001742 | 22 | 279 | 35.4 | 53.1 | 0.00 | 0.00 | 0.00 | 28 | 1002.1 |
| 20260504000747 | 23 | 280 | 37.0 | 51.5 | 0.00 | 0.00 | 0.00 | 28 | 1002.1 |
| 20260503235748 | 23 | 257 | 40.2 | 48.3 | 0.00 | 0.00 | 0.00 | 28 | 1002.0 |
| 20260503234747 | 23 | 296 | 40.2 | 57.9 | 0.00 | 0.00 | 0.00 | 26 | 1002.1 |
| 20260503233751 | 23 | 279 | 32.2 | 53.1 | 0.00 | 0.00 | 0.00 | 26 | 1002.0 |
| 20260503232752 | 23 | 286 | 40.2 | 54.7 | 0.00 | 0.00 | 0.00 | 25 | 1001.9 |
| 20260503231755 | 24 | 268 | 49.9 | 56.3 | 0.00 | 0.00 | 0.00 | 23 | 1002.0 |
| 20260503230817 | 25 | 273 | 37.0 | 51.5 | 0.00 | 0.00 | 0.00 | 22 | 1002.0 |
| 20260503225817 | 25 | 290 | 35.4 | 51.5 | 0.00 | 0.00 | 0.00 | 21 | 1002.0 |
| 20260503224757 | 25 | 255 | 37.0 | 45.1 | 0.00 | 0.00 | 0.00 | 21 | 1001.8 |
| 20260503223757 | 25 | 279 | 37.0 | 49.9 | 0.00 | 0.00 | 0.00 | 22 | 1002.2 |
| 20260503222800 | 25 | 250 | 41.8 | 49.9 | 0.00 | 0.00 | 0.00 | 22 | 1002.3 |
| 20260503221800 | 25 | 261 | 25.7 | 45.1 | 0.00 | 0.00 | 0.00 | 23 | 1002.6 |
| 20260503220759 | 24 | 237 | 45.1 | 51.5 | 0.00 | 0.00 | 0.00 | 22 | 1002.7 |
| 20260503215821 | 24 | 236 | 41.8 | 53.1 | 0.00 | 0.00 | 0.00 | 22 | 1002.9 |
| 20260503214746 | 25 | 259 | 29.0 | 46.7 | 0.00 | 0.00 | 0.00 | 24 | 1002.9 |
| 20260503213745 | 24 | 251 | 41.8 | 48.3 | 0.00 | 0.00 | 0.00 | 23 | 1003.3 |
| 20260503212746 | 25 | 277 | 38.6 | 48.3 | 0.00 | 0.00 | 0.00 | 23 | 1003.5 |
| 20260503211807 | 24 | 224 | 35.4 | 46.7 | 0.00 | 0.00 | 0.00 | 25 | 1003.8 |
| 20260503210748 | 24 | 259 | 46.7 | 53.1 | 0.00 | 0.00 | 0.00 | 25 | 1003.9 |
| 20260503205752 | 24 | 246 | 22.5 | 49.9 | 0.00 | 0.00 | 0.00 | 24 | 1004.1 |
| 20260503204755 | 23 | 245 | 37.0 | 46.7 | 0.00 | 0.00 | 0.00 | 25 | 1004.4 |
| 20260503203754 | 24 | 253 | 32.2 | 46.7 | 0.00 | 0.00 | 0.00 | 24 | 1004.5 |
| 20260503202819 | 23 | 265 | 24.1 | 46.7 | 0.00 | 0.00 | 0.00 | 25 | 1004.5 |
| 20260503201742 | 23 | 256 | 20.9 | 40.2 | 0.00 | 0.00 | 0.00 | 26 | 1004.8 |
| 20260503200743 | 23 | 224 | 17.7 | 37.0 | 0.00 | 0.00 | 0.00 | 28 | 1005.0 |
| 20260503195743 | 23 | 223 | 19.3 | 38.6 | 0.00 | 0.00 | 0.00 | 26 | 1005.3 |
| 20260503194744 | 23 | 236 | 24.1 | 33.8 | 0.00 | 0.00 | 0.00 | 28 | 1005.4 |
| 20260503193746 | 22 | 217 | 25.7 | 37.0 | 0.00 | 0.00 | 0.00 | 29 | 1005.9 |
| 20260503192753 | 22 | 240 | 24.1 | 51.5 | 0.00 | 0.00 | 0.00 | 29 | 1006.1 |
| 20260503191754 | 22 | 244 | 22.5 | 30.6 | 0.00 | 0.00 | 0.00 | 28 | 1006.3 |
| 20260503190754 | 22 | 241 | 8.0 | 30.6 | 0.00 | 0.00 | 0.00 | 30 | 1006.6 |
| 20260503185755 | 22 | 216 | 25.7 | 29.0 | 0.00 | 0.00 | 0.00 | 30 | 1006.7 |
| 20260503184741 | 22 | 264 | 25.7 | 33.8 | 0.00 | 0.00 | 0.00 | 31 | 1007.2 |
| 20260503183742 | 21 | 212 | 9.7 | 30.6 | 0.00 | 0.00 | 0.00 | 31 | 1007.5 |
| 20260503182806 | 21 | 271 | 22.5 | 32.2 | 0.00 | 0.00 | 0.00 | 30 | 1007.8 |
| 20260503181805 | 21 | 254 | 24.1 | 29.0 | 0.00 | 0.00 | 0.00 | 33 | 1008.1 |
| 20260503180744 | 21 | 285 | 20.9 | 37.0 | 0.00 | 0.00 | 0.00 | 33 | 1008.2 |
| 20260503175748 | 20 | 258 | 20.9 | 30.6 | 0.00 | 0.00 | 0.00 | 32 | 1008.6 |
| 20260503174749 | 20 | 206 | 24.1 | 30.6 | 0.00 | 0.00 | 0.00 | 31 | 1008.7 |
| 20260503173748 | 20 | 238 | 19.3 | 30.6 | 0.00 | 0.00 | 0.00 | 32 | 1008.8 |
| 20260503172749 | 20 | 264 | 22.5 | 30.6 | 0.00 | 0.00 | 0.00 | 36 | 1008.9 |
| 20260503171753 | 20 | 273 | 24.1 | 30.6 | 0.00 | 0.00 | 0.00 | 39 | 1009.0 |
| 20260503170754 | 20 | 251 | 16.1 | 27.4 | 0.00 | 0.00 | 0.00 | 39 | 1009.1 |
| 20260503150758 | 12 | 211 | 1.6 | 6.4 | 0.00 | 0.00 | 0.00 | 52 | 1011.3 |
| 20260503130749 | 3 | 317 | 0.0 | 9.7 | 0.00 | 0.00 | 0.00 | 79 | 1012.2 |
| 20260503110743 | 0 | 317 | 0.0 | 3.2 | 0.00 | 0.00 | 0.00 | 81 | 1012.7 |
| 20260503080746 | 3 | 302 | 1.6 | 3.2 | 0.00 | 0.00 | 0.00 | 75 | 1013.3 |
| 20260503072738 | 4 | 301 | 0.0 | 4.8 | 0.00 | 0.00 | 0.00 | 75 | 1013.5 |
| 20260503071746 | 4 | 301 | 4.8 | 6.4 | 0.00 | 0.00 | 0.00 | 75 | 1013.5 |
| 20260503070746 | 4 | 302 | 4.8 | 6.4 | 0.00 | 0.00 | 0.00 | 75 | 1013.6 |
| 20260503054752 | 5 | 301 | 3.2 | 4.8 | 0.00 | 0.00 | 0.00 | 71 | 1013.6 |
| 20260503053755 | 6 | 302 | 1.6 | 4.8 | 0.00 | 0.00 | 0.00 | 71 | 1013.6 |
| 20260503052755 | 6 | 302 | 3.2 | 6.4 | 0.00 | 0.00 | 0.00 | 72 | 1013.7 |
| 20260503051743 | 6 | 302 | 0.0 | 1.6 | 0.00 | 0.00 | 0.00 | 70 | 1013.7 |
| 20260503050807 | 6 | 301 | 1.6 | 3.2 | 0.00 | 0.00 | 0.00 | 69 | 1013.7 |
| 20260503045746 | 6 | 301 | 0.0 | 4.8 | 0.00 | 0.00 | 0.00 | 69 | 1013.7 |
| 20260503044809 | 7 | 302 | 1.6 | 1.6 | 0.00 | 0.00 | 0.00 | 65 | 1013.7 |
| 20260503043809 | 7 | 302 | 0.0 | 3.2 | 0.00 | 0.00 | 0.00 | 65 | 1013.8 |
| 20260503042808 | 7 | 302 | 1.6 | 4.8 | 0.00 | 0.00 | 0.00 | 66 | 1013.7 |
| 20260503041751 | 8 | 302 | 3.2 | 4.8 | 0.00 | 0.00 | 0.00 | 66 | 1013.6 |
| 20260503040750 | 8 | 302 | 3.2 | 3.2 | 0.00 | 0.00 | 0.00 | 63 | 1013.7 |
| 20260503035816 | 8 | 301 | 1.6 | 4.8 | 0.00 | 0.00 | 0.00 | 62 | 1013.6 |
| 20260503034755 | 9 | 302 | 3.2 | 3.2 | 0.00 | 0.00 | 0.00 | 62 | 1013.6 |
| 20260503033742 | 10 | 302 | 1.6 | 4.8 | 0.00 | 0.00 | 0.00 | 60 | 1013.6 |
| 20260503032744 | 10 | 302 | 1.6 | 1.6 | 0.00 | 0.00 | 0.00 | 58 | 1013.6 |
| 20260503031744 | 11 | 302 | 0.0 | 3.2 | 0.00 | 0.00 | 0.00 | 56 | 1013.7 |
| 20260503030745 | 11 | 301 | 0.0 | 1.6 | 0.00 | 0.00 | 0.00 | 55 | 1013.6 |
| 20260503025746 | 11 | 302 | 0.0 | 3.2 | 0.00 | 0.00 | 0.00 | 56 | 1013.6 |
| 20260503024750 | 12 | 302 | 3.2 | 3.2 | 0.00 | 0.00 | 0.00 | 51 | 1013.5 |
| 20260503023814 | 12 | 302 | 0.0 | 3.2 | 0.00 | 0.00 | 0.00 | 50 | 1013.3 |
| 20260503022757 | 12 | 302 | 3.2 | 3.2 | 0.00 | 0.00 | 0.00 | 50 | 1013.3 |